Wind_Speed
17 17 18 18 18 18 19 20 20 20 19 18 16 16 15 15 15 15 15 15 15 16 17 18 20 21 22 23 23 23 22 22 22 22 22 23 21 17 13 12 15 18 21 20 18 17 17 17 17 17 17 16 15 15 15 15 15 16 16 17 18 19 20 21 21 21 21 20 19
16 16 16 17 17 17 18 19 18 18 17 16 16 15 15 15 15 15 15 15 16 16 17 18 20 21 21 22 23 22 22 22 21 21 22 21 19 17 16 16 18 20 20 19 19 19 19 19 18 17 16 15 14 13 14 14 15 16 16 17 18 18 19 20 19 19 18 17 17
15 15 15 16 16 16 16 16 16 16 15 15 15 14 14 14 15 15 15 15 16 17 18 19 19 20 20 21 21 21 21 21 21 21 20 19 18 17 17 19 20 20 19 18 18 18 18 18 17 15 14 14 13 13 14 15 15 16 16 17 17 17 17 17 17 16 16 15 15
15 15 15 14 14 14 14 14 14 14 13 13 14 14 13 13 14 14 15 16 16 17 17 18 18 19 19 19 19 19 19 19 20 19 19 18 18 18 19 19 19 18 18 17 18 18 17 17 16 15 14 14 14 14 15 15 15 15 15 15 15 15 15 15 15 14 14 14 14
15 15 14 13 13 12 12 12 12 12 13 13 13 13 13 13 13 14 14 15 15 15 16 16 17 17 17 18 18 18 19 19 19 19 19 19 19 19 20 20 19 19 18 18 18 18 19 19 18 17 16 16 15 15 16 15 15 14 14 14 13 13 13 13 13 13 14 14 15
15 14 13 12 11 11 11 11 11 11 12 12 13 13 13 12 12 12 12 13 13 13 14 14 15 15 16 16 17 17 18 18 18 18 19 19 19 19 20 20 20 20 20 19 19 20 20 20 20 19 17 16 16 16 16 15 14 13 13 13 13 13 13 13 14 14 15 15 16
14 13 12 12 11 10 10 10 10 10 10 11 12 12 12 12 11 11 11 11 12 12 12 13 13 14 14 15 15 16 16 17 18 18 18 18 19 19 20 20 20 20 19 19 19 20 20 20 19 19 18 19 19 18 17 16 15 15 14 14 15 15 15 15 16 16 17 17 18
13 13 12 11 11 10 10 9 9 9 9 10 11 11 11 11 10 10 10 10 10 11 11 11 12 12 13 13 14 15 15 16 17 17 18 18 19 19 19 20 19 17 16 17 19 20 21 21 20 20 20 20 20 20 19 18 18 18 18 18 18 18 18 18 18 19 19 19 20
12 12 12 11 11 10 10 10 10 9 9 9 10 10 11 11 10 10 10 9 10 10 10 10 10 10 11 11 11 12 13 14 14 15 16 17 17 17 18 18 18 19 19 20 20 21 21 21 21 21 21 21 21 21 21 21 21 21 21 21 20 20 20 20 20 20 21 21 22
12 12 12 11 11 11 11 11 10 10 10 10 10 11 11 11 11 11 10 10 10 10 10 10 9 9 9 9 9 10 11 11 12 13 14 15 16 16 17 18 19 20 20 21 21 21 21 22 21 21 21 21 21 22 22 23 23 22 22 22 22 21 21 21 21 22 22 23 22
12 12 12 12 12 12 12 12 12 12 12 12 12 12 12 12 12 12 12 12 12 11 11 11 10 10 10 10 10 11 11 12 12 13 14 15 16 16 17 18 19 20 21 21 22 22 22 22 22 22 22 22 22 22 22 23 23 22 22 22 22 21 22 22 23 23 23 23 22
13 13 13 12 12 12 12 13 13 13 13 13 14 14 14 14 14 14 14 14 13 13 13 13 12 12 13 13 13 13 14 14 14 15 15 16 17 18 19 19 20 21 22 22 23 23 23 23 23 23 23 23 22 22 22 22 22 21 22 22 22 23 23 23 24 24 23 22 21
14 13 13 13 13 13 13 13 13 14 14 14 14 15 15 15 15 15 15 15 15 15 15 15 14 15 15 15 15 16 16 16 16 17 17 18 19 19 20 21 21 22 23 24 24 24 24 24 23 23 22 22 21 21 20 20 21 21 22 22 23 23 23 23 22 21 21 20 20
14 14 14 14 14 14 14 14 14 14 14 14 14 15 15 15 16 16 16 16 16 16 16 16 16 16 16 17 17 17 17 17 17 18 18 19 19 20 20 21 22 22 22 22 22 22 22 22 22 21 20 19 19 19 19 20 20 21 21 22 22 21 21 20 20 19 19 19 19
15 15 14 14 14 14 14 14 14 14 14 14 14 15 15 15 16 16 16 16 16 17 17 17 17 17 17 18 18 18 17 17 17 17 18 18 19 19 19 19 20 20 20 19 19 20 20 20 19 18 17 17 18 18 19 19 19 20 20 19 19 19 19 19 19 19 19 19 19
15 15 15 15 15 15 15 15 15 14 14 15 15 15 15 16 16 17 17 17 17 18 18 18 18 18 18 18 18 18 17 17 17 16 17 17 17 17 17 17 17 17 17 16 17 18 18 18 17 16 16 17 17 18 18 18 18 18 17 17 17 18 18 18 18 18 18 18 18
15 16 16 16 16 16 16 16 15 15 15 16 16 16 16 17 17 18 18 18 18 18 19 19 19 19 19 18 18 17 16 16 15 15 15 15 15 15 15 15 15 14 14 14 15 15 15 15 15 15 15 15 16 16 16 15 15 16 16 16 17 17 17 17 17 17 17 17 17
16 16 17 16 17 17 17 17 17 17 17 17 17 17 18 18 18 19 19 19 19 19 19 19 19 18 18 17 17 16 15 14 13 13 13 13 13 13 13 13 13 13 13 12 12 12 12 12 12 12 12 12 12 12 13 13 14 14 15 15 16 16 15 15 15 15 15 15 15
17 17 17 17 18 18 18 18 18 18 18 18 18 18 19 19 19 19 19 20 20 19 19 19 18 17 16 15 14 13 12 11 10 10 10 10 10 11 11 11 11 11 10 10 9 9 8 8 9 9 9 10 10 11 11 12 13 14 14 14 14 13 13 13 12 12 12 12 12
18 18 18 18 18 19 19 19 18 18 19 19 19 19 19 19 19 19 19 19 19 18 17 17 15 14 13 12 11 10 9 8 7 7 8 9 9 9 9 9 8 8 7 6 6 6 6 7 7 8 8 9 10 11 11 12 12 13 13 12 12 11 11 11 11 11 11 10 10
18 18 18 19 19 19 19 19 19 19 19 19 18 18 18 18 18 18 18 17 17 16 15 14 12 11 10 9 8 7 6 5 6 6 7 7 7 7 7 6 6 5 5 4 5 5 6 7 7 8 9 10 11 11 11 12 12 12 12 12 11 11 10 11 11 10 10 9 8
17 17 17 18 18 18 18 18 18 18 17 17 17 16 16 16 16 16 16 15 14 13 12 10 9 8 7 6 5 4 4 4 5 5 6 6 6 5 5 4 4 4 4 5 6 6 7 8 8 9 10 11 11 11 11 11 11 11 11 11 11 10 10 10 10 9 8 7 6
15 15 16 16 16 16 16 16 15 15 15 14 14 14 14 14 14 14 13 12 11 9 8 7 6 5 4 4 3 3 4 4 4 5 5 5 5 5 4 4 5 6 6 7 7 8 8 9 9 10 10 10 10 9 9 9 9 9 9 9 9 9 8 8 7 6 5 4 4
13 13 13 12 12 12 12 12 12 11 11 11 12 12 12 12 11 10 9 8 7 6 5 4 4 3 3 3 3 3 4 4 4 5 5 5 6 6 6 6 7 7 8 8 8 8 8 9 8 8 8 8 8 7 7 7 7 7 7 7 7 7 6 5 4 4 3 3 3
10 9 8 8 8 8 8 8 7 8 8 8 8 8 7 7 7 6 5 4 4 3 3 3 2 2 3 3 3 4 4 4 5 6 6 7 7 7 8 8 8 8 8 8 7 7 7 6 6 6 6 6 5 5 5 5 5 5 5 5 4 4 4 3 3 2 3 3 3
6 5 5 4 4 4 4 4 4 3 3 3 3 3 3 3 3 2 2 2 2 2 2 2 2 2 3 3 4 4 5 5 6 6 7 8 8 8 8 8 8 7 6 5 5 4 4 4 4 3 3 3 4 4 4 4 4 4 4 3 3 3 3 3 3 3 3 3 3
3 3 2 2 2 2 2 2 1 1 1 2 2 1 1 1 1 1 1 1 1 1 1 1 2 2 3 4 4 5 5 5 6 6 7 7 8 7 7 6 5 3 2 2 1 2 2 2 2 2 2 3 3 3 3 4 4 3 3 3 3 3 3 3 3 3 3 3 3
2 2 1 1 1 0 1 2 2 3 3 3 3 2 2 1 1 1 1 0 1 1 1 1 2 2 3 3 4 4 5 5 5 6 6 6 5 4 3 2 1 1 1 2 2 2 2 3 3 3 3 3 3 3 3 3 3 3 3 3 3 3 3 3 3 3 3 2 2
2 1 1 0 1 1 1 2 2 2 2 2 2 2 2 1 1 0 1 1 2 2 2 2 2 3 3 4 4 4 4 4 4 4 4 3 2 1 1 1 2 3 3 3 4 4 4 4 4 4 4 4 4 4 3 3 3 3 3 3 3 2 2 2 2 2 2 2 2
2 1 1 1 1 2 2 2 2 1 1 1 1 1 1 1 1 2 2 3 3 3 3 3 3 3 3 3 3 3 3 3 3 2 1 1 1 2 2 3 3 4 4 5 5 4 4 4 4 4 4 4 4 3 3 3 3 2 2 2 2 2 1 1 2 2 2 3 3
2 1 2 2 2 3 3 3 2 1 1 0 0 1 2 2 3 3 3 4 4 4 4 4 3 3 3 2 2 2 2 2 2 2 3 3 4 4 4 4 4 5 5 5 5 4 4 4 4 3 3 3 3 3 2 2 2 2 1 1 1 2 2 3 3 4 4 5 5
2 2 3 3 3 3 3 3 3 3 2 2 2 2 3 3 4 4 4 4 5 5 4 4 4 3 2 2 2 2 2 3 4 5 5 5 5 5 4 4 5 5 5 5 5 4 4 4 3 3 3 3 3 2 2 2 2 2 3 3 3 4 4 5 5 6 7 7 8
2 3 3 3 3 3 3 3 3 4 3 3 3 4 4 4 4 4 5 5 6 6 5 5 5 4 4 4 4 4 5 5 6 6 7 6 6 5 5 4 5 5 5 5 4 4 3 3 3 3 3 3 3 3 3 3 3 4 4 4 5 5 6 6 7 7 8 8 9
3 3 4 3 3 3 2 3 4 4 4 4 4 5 5 5 5 6 6 6 7 7 6 6 6 5 5 5 6 6 7 7 7 7 7 7 6 5 4 4 4 4 4 4 4 3 3 3 3 3 3 3 4 4 4 4 4 5 5 5 6 6 7 7 7 8 8 8 9
4 4 4 3 3 2 2 3 4 4 5 5 6 6 6 6 7 7 7 8 7 7 7 7 7 7 7 7 8 8 8 8 8 7 7 7 6 5 4 3 4 4 4 4 3 3 3 3 4 4 4 4 4 5 5 5 6 6 6 7 7 7 7 8 8 8 9 9 9
5 5 4 3 3 2 2 3 4 4 5 6 7 7 7 7 8 8 9 9 8 8 8 8 8 8 9 8 8 8 8 8 7 7 6 6 5 4 4 3 3 4 4 4 4 4 4 4 5 5 5 5 6 6 6 7 7 7 8 8 8 8 8 8 9 9 9 9 9
6 6 5 4 3 3 3 4 4 5 6 7 7 8 8 9 9 10 10 10 10 9 9 9 9 9 9 8 8 8 8 7 7 6 6 5 5 5 4 4 4 4 4 5 5 5 5 6 6 6 6 7 7 7 8 8 8 8 8 8 8 8 8 8 9 9 9 9 9
7 7 6 5 4 4 4 5 5 6 7 8 8 9 9 10 11 11 12 11 11 10 10 9 9 9 9 8 8 7 7 7 6 6 5 5 5 5 5 5 5 5 5 6 6 6 6 6 7 7 7 7 8 8 8 8 8 8 8 8 8 8 8 8 8 8 9 9 9
7 7 7 6 5 5 6 6 7 8 8 9 9 10 11 11 12 12 13 12 11 10 10 9 9 9 9 8 8 7 7 7 6 6 6 6 6 6 6 6 6 6 6 6 6 6 6 7 7 7 7 7 7 7 7 7 7 7 7 7 7 7 7 7 8 8 8 8 8
7 7 7 7 7 7 7 8 9 9 10 10 11 11 12 12 13 13 13 12 11 10 10 9 9 9 9 8 8 7 7 6 6 6 6 6 6 6 6 6 6 6 6 6 6 6 6 6 6 6 6 6 6 6 6 6 6 6 7 7 7 7 7 7 7 7 8 8 8
7 8 8 8 8 9 9 10 10 11 11 11 12 12 13 13 13 13 13 12 11 10 10 9 9 9 9 8 8 7 7 6 6 6 6 6 6 6 6 6 5 5 5 5 6 6 6 6 6 6 6 6 6 6 6 7 7 7 8 8 8 8 8 8 8 8 8 8 8
Wind_Direction
268 269 268 267 266 265 264 262 260 257 253 248 246 247 249 251 252 252 254 255 255 255 255 254 254 255 256 257 258 258 258 260 261 264 266 268 270 270 268 265 268 273 277 281 285 288 288 288 288 289 289 287 284 283 285 288 292 295 297 298 298 296 294 292 289 287 285 283 281
262 264 265 265 265 264 264 262 260 257 254 250 246 246 247 248 249 249 250 250 251 251 252 253 254 255 256 257 257 257 257 257 259 261 264 268 271 272 270 267 269 272 276 279 282 283 285 286 287 288 289 288 286 287 288 289 291 293 294 294 291 289 287 285 284 282 281 278 276
256 258 260 260 260 261 260 259 257 255 251 248 245 243 243 245 246 247 247 247 247 247 249 251 253 254 254 255 255 255 255 255 257 259 262 266 267 266 265 266 269 272 275 276 277 279 282 284 285 286 285 284 283 284 285 286 288 288 287 285 284 282 281 279 278 277 275 272 270
254 253 253 253 254 255 255 255 252 249 245 243 242 240 239 240 242 244 244 245 245 246 247 248 250 251 251 252 252 252 253 254 255 257 259 260 260 261 263 265 268 270 270 271 272 275 277 278 278 278 276 275 275 277 279 281 283 282 281 279 278 277 276 275 274 271 268 265 263
252 250 248 246 247 249 250 251 249 245 242 239 237 235 235 236 239 241 243 244 244 245 245 245 246 246 247 248 249 250 251 252 253 254 254 255 256 258 261 263 265 266 266 267 270 273 275 276 275 273 270 270 272 275 277 278 278 277 277 277 275 272 270 268 265 263 261 259 259
249 246 243 241 241 242 245 246 245 243 240 237 233 231 230 232 234 237 240 241 242 242 242 242 242 242 243 244 246 247 248 249 250 251 252 253 255 257 259 261 261 262 264 267 271 275 276 276 274 271 271 274 277 278 277 277 275 274 273 270 267 264 260 256 256 255 256 256 259
244 240 236 234 235 236 238 240 240 240 239 237 232 229 229 230 232 234 237 239 241 241 240 240 239 240 241 242 244 246 248 250 251 252 253 254 256 257 258 259 258 259 261 265 270 273 273 271 269 270 273 278 279 278 275 273 273 272 269 264 262 259 256 253 253 254 255 258 263
239 235 233 232 233 234 236 238 239 240 240 239 234 232 232 232 233 236 238 241 241 242 241 241 239 239 239 241 243 246 249 250 251 252 253 254 255 256 257 258 259 260 263 265 267 268 267 267 268 270 272 273 273 273 272 272 273 272 270 265 262 260 258 256 256 258 260 264 270
238 236 235 236 236 238 240 241 242 244 244 244 242 240 239 239 239 240 242 243 244 244 244 243 241 239 238 238 240 242 245 247 248 250 252 254 255 256 258 259 262 265 267 267 266 265 265 266 268 269 269 270 271 272 273 274 274 273 270 266 263 261 261 261 262 265 268 273 277
241 242 243 243 244 246 247 249 250 251 252 253 252 250 249 248 247 247 246 246 247 247 247 245 245 243 242 242 242 244 245 247 249 251 253 256 258 260 261 262 263 264 265 265 265 265 266 267 269 270 271 272 272 273 274 274 273 272 269 266 264 263 264 267 271 274 277 281 284
245 247 249 250 252 253 255 258 259 260 260 261 260 259 258 257 256 255 254 254 253 253 253 253 254 255 256 257 258 258 258 258 258 258 259 260 261 262 263 263 263 263 263 264 265 266 267 269 270 271 271 272 272 272 272 272 271 270 268 267 267 269 272 275 279 281 284 287 289
247 249 251 253 254 257 260 263 265 266 266 267 266 266 266 266 265 264 264 264 263 263 264 265 266 268 269 270 270 270 269 269 268 267 267 267 266 266 265 265 265 265 265 265 266 267 268 269 269 270 270 271 271 271 271 270 269 269 269 270 272 275 278 281 284 286 288 291 292
248 250 252 253 255 258 261 264 266 268 269 270 270 271 271 272 272 273 274 274 275 275 276 276 277 278 278 278 277 276 276 275 275 274 274 273 272 271 270 269 269 269 268 268 269 270 270 270 270 270 270 271 272 272 271 271 271 271 273 275 278 280 282 284 286 289 291 293 293
248 250 252 254 256 258 261 263 265 267 268 270 270 272 273 275 276 278 279 280 282 282 282 282 282 282 282 281 280 280 280 280 279 279 279 278 277 277 276 276 275 274 274 273 274 274 274 274 274 273 274 274 274 274 274 273 274 275 278 280 282 284 285 287 289 291 292 292 292
249 250 252 254 256 259 260 261 263 265 267 268 269 270 272 275 277 278 280 281 282 282 282 282 282 282 282 281 281 281 281 281 281 281 281 280 280 280 280 279 279 279 279 279 280 280 280 280 279 277 276 275 275 275 276 277 278 280 282 284 286 287 287 288 289 290 290 290 290
250 251 252 254 256 258 260 261 263 264 264 265 266 267 269 271 274 275 277 278 279 279 279 279 279 280 280 280 280 281 281 282 282 281 281 280 280 280 280 280 280 281 282 284 285 285 285 284 281 279 278 277 278 279 281 282 284 286 287 287 287 286 286 287 287 288 288 289 290
250 252 253 255 256 257 259 260 261 262 262 262 263 264 265 267 269 270 271 273 273 275 276 277 277 278 279 280 281 281 282 282 281 280 279 279 279 280 281 281 282 283 284 285 286 287 287 285 283 281 282 283 285 286 287 288 288 287 286 285 283 283 283 284 285 287 290 293 295
251 252 253 254 256 257 258 258 259 259 259 259 259 260 261 262 263 265 266 268 269 271 273 274 275 277 278 279 281 281 281 281 280 280 279 280 281 283 284 286 286 286 286 287 288 289 290 289 289 289 290 290 291 290 289 288 286 284 282 281 281 282 283 286 289 292 297 300 303
252 253 254 254 255 255 256 256 257 257 257 257 257 258 258 259 260 262 264 265 267 269 270 272 273 274 275 275 277 277 277 277 279 281 284 286 289 291 291 292 291 290 290 290 292 293 295 296 296 296 294 292 290 288 286 285 284 284 285 286 286 289 291 295 298 302 305 307 309
251 252 253 253 253 253 254 254 255 255 256 256 257 257 258 258 259 260 262 264 265 267 268 269 269 269 269 269 269 270 271 275 282 289 294 298 300 301 300 299 298 297 296 297 298 298 297 296 294 292 289 287 286 286 286 288 291 294 297 299 300 302 304 307 309 311 312 313 313
249 250 250 251 251 251 252 252 253 254 255 256 257 258 258 259 259 259 260 261 262 263 264 263 262 262 261 261 262 266 272 282 291 299 304 307 310 310 309 308 306 304 301 299 293 290 287 285 284 284 284 284 286 289 293 298 303 307 311 312 314 315 315 317 318 319 319 319 319
248 248 248 249 249 250 251 252 254 255 256 257 257 257 257 257 256 255 255 256 256 257 256 255 255 254 254 256 260 269 280 293 301 305 308 311 313 313 312 308 300 294 287 283 280 279 279 279 281 282 284 287 292 297 302 307 312 315 318 320 321 323 324 325 326 326 326 328 330
247 247 248 248 250 251 252 253 254 254 255 254 254 253 252 251 250 249 249 248 248 247 247 247 249 249 251 253 261 271 285 296 301 303 304 304 302 299 293 288 282 278 276 276 277 278 279 281 283 286 290 295 301 306 310 314 317 319 322 325 329 331 333 333 334 336 339 344 349
247 247 247 247 248 248 248 249 249 249 249 248 247 245 244 243 242 242 241 239 239 240 242 245 247 248 251 255 261 269 278 286 290 291 291 288 286 282 279 276 275 275 276 277 278 279 282 285 289 294 300 305 310 314 316 319 323 327 330 334 338 341 343 345 349 357 10 26 40
247 245 243 241 240 240 243 246 248 248 246 244 242 239 237 236 235 235 234 236 239 243 247 254 257 258 258 258 262 266 271 276 278 279 279 278 278 277 276 276 276 276 277 278 280 282 286 291 298 305 311 317 321 325 328 333 338 343 346 350 354 0 7 17 28 42 56 71 82
243 241 239 238 240 244 253 259 260 257 252 246 239 236 233 234 235 238 246 257 258 260 261 267 264 263 260 261 262 264 268 270 273 274 275 276 277 278 279 279 279 279 279 281 286 292 300 309 316 322 331 338 344 350 355 359 2 7 11 17 25 34 45 57 68 74 78 84 90
244 248 252 253 261 275 291 306 328 6 30 34 29 16 347 304 284 282 282 281 273 267 259 260 258 258 257 258 259 261 264 267 271 274 277 279 280 282 283 285 286 287 293 306 322 337 346 352 2 9 18 22 25 27 27 29 30 33 39 48 55 62 68 74 76 79 81 81 78
263 270 277 280 285 321 18 38 42 40 36 31 23 13 4 356 341 324 291 246 221 214 225 229 236 241 245 247 249 252 258 264 271 276 279 281 283 286 293 303 325 33 59 61 62 55 49 44 46 48 50 54 54 54 53 55 58 61 64 68 72 76 77 77 74 72 68 59 48
269 272 267 237 173 125 94 78 65 51 39 30 20 13 11 13 18 140 169 173 176 183 189 198 208 217 224 229 236 246 255 263 269 273 274 277 283 307 9 54 75 80 80 76 73 69 65 61 59 61 64 67 69 71 72 74 78 80 81 80 77 76 74 69 62 49 37 20 4
251 244 212 173 147 134 123 114 103 80 53 34 20 23 40 79 126 146 155 159 166 172 178 183 191 199 206 218 232 244 252 256 256 252 232 140 94 83 78 79 83 84 82 78 75 73 71 69 69 69 71 75 77 79 81 82 84 85 83 76 68 56 42 24 6 350 338 329 322
213 195 171 150 136 131 131 133 134 135 137 155 121 109 117 126 136 145 152 160 167 171 172 173 177 183 189 203 220 233 235 225 194 151 121 103 91 83 80 81 83 84 83 81 80 78 76 75 75 74 74 74 74 74 73 68 62 54 41 20 1 345 331 324 319 316 313 312 311
184 166 152 141 135 135 140 147 154 165 178 183 157 141 135 137 142 150 156 162 163 161 157 152 152 153 157 165 175 180 173 156 136 119 106 95 87 82 82 83 85 87 88 88 86 83 79 75 72 69 65 63 57 50 39 27 13 0 348 337 329 325 322 320 319 318 318 317 318
156 147 141 137 139 142 150 157 164 168 170 165 153 145 143 145 150 154 155 153 150 144 138 135 135 138 140 143 145 144 139 130 119 109 101 94 88 85 85 87 90 92 93 91 87 82 75 67 60 53 47 39 30 22 12 2 354 347 341 334 332 329 328 327 326 326 325 324 324
139 137 134 135 140 146 152 158 161 162 160 156 151 148 148 148 147 147 145 143 139 134 132 133 136 139 140 138 134 129 124 118 112 106 101 96 93 91 91 93 93 93 93 89 83 75 65 56 46 38 31 25 18 12 5 359 354 349 346 342 340 338 336 334 332 329 327 325 324
132 131 132 134 138 143 147 150 153 156 156 154 151 151 151 149 145 143 139 137 135 134 135 138 139 138 134 130 126 122 118 114 110 106 103 100 97 96 97 98 96 91 88 84 76 67 58 49 42 35 29 24 18 13 8 3 359 356 352 349 347 343 339 336 332 329 327 324 322
131 132 133 137 138 142 145 149 151 155 158 157 155 152 151 148 145 142 138 136 135 136 137 137 135 131 128 124 121 118 115 113 110 108 106 104 103 101 100 100 95 89 82 75 67 59 50 43 37 30 25 20 15 10 5 1 359 355 352 350 347 343 338 334 330 326 324 321 319
132 134 136 139 143 148 150 152 155 158 161 160 157 154 150 147 144 141 138 136 135 136 135 134 131 127 123 121 119 117 115 113 112 111 111 108 105 101 94 88 83 75 68 62 54 46 38 32 26 20 15 12 8 4 0 357 354 351 349 347 343 338 334 330 327 323 320 317 315
134 135 137 143 149 154 154 155 157 159 160 159 157 154 151 147 143 140 138 136 136 135 134 132 128 125 122 120 119 117 116 115 114 113 110 105 98 89 80 69 61 56 51 47 41 34 28 22 18 13 9 7 4 359 355 352 349 347 344 341 338 334 330 327 325 323 320 317 315
136 135 139 145 153 156 156 156 156 157 158 157 155 152 149 146 142 140 138 136 137 136 135 131 128 125 123 121 119 118 117 115 111 107 99 91 82 73 64 55 47 42 39 35 32 27 22 18 14 9 6 3 359 355 352 348 345 342 339 337 334 331 329 327 326 325 323 321 319
138 138 142 148 153 154 155 154 154 154 154 153 151 149 147 144 142 140 138 137 137 136 134 131 129 127 125 121 118 116 112 107 100 93 84 74 67 60 53 46 41 36 33 31 28 25 20 16 11 7 2 359 355 351 347 343 340 338 337 335 334 331 330 330 329 329 329 327 325
141 142 145 149 150 151 151 151 150 150 150 150 149 147 146 144 142 140 139 138 137 135 133 131 130 128 125 119 114 108 102 94 85 78 71 63 57 52 47 41 37 33 31 28 25 22 19 15 9 3 359 356 353 349 347 344 342 341 340 338 338 336 335 334 334 333 333 331 330
Height
1508 1508 1508 1508 1508 1507 1507 1507 1507 1507 1507 1508 1508 1508 1507 1507 1507 1508 1508 1508 1508 1509 1509 1509 1509 1510 1510 1510 1511 1511 1511 1511 1512 1512 1512 1512 1513 1512 1512 1513 1514 1514 1513 1513 1513 1513 1513 1513 1514 1514 1514 1514 1515 1515 1515 1515 1516 1515 1515 1515 1515 1515 1515 1515 1515 1515 1515 1515 1514
1507 1507 1507 1507 1506 1506 1506 1506 1506 1506 1506 1506 1507 1506 1506 1506 1506 1507 1507 1507 1508 1508 1508 1508 1508 1509 1509 1509 1509 1510 1510 1510 1510 1511 1511 1511 1511 1511 1512 1512 1513 1513 1512 1512 1512 1512 1513 1513 1513 1513 1513 1514 1514 1514 1514 1514 1514 1514 1514 1514 1514 1514 1514 1514 1514 1514 1513 1513 1513
1507 1506 1506 1506 1506 1505 1505 1505 1505 1505 1505 1505 1505 1505 1505 1505 1505 1505 1506 1506 1507 1507 1507 1507 1508 1508 1508 1508 1508 1509 1509 1509 1509 1509 1509 1509 1510 1510 1511 1511 1511 1511 1511 1511 1511 1511 1512 1512 1512 1512 1513 1513 1513 1513 1513 1513 1513 1513 1513 1513 1512 1512 1512 1512 1512 1512 1512 1512 1512
1506 1506 1505 1505 1505 1505 1504 1504 1504 1504 1504 1504 1504 1504 1504 1504 1504 1505 1505 1505 1505 1506 1506 1506 1506 1507 1507 1507 1508 1508 1508 1508 1508 1508 1508 1508 1509 1509 1509 1509 1510 1510 1510 1510 1510 1510 1511 1511 1511 1511 1511 1511 1511 1511 1511 1511 1511 1511 1511 1511 1511 1511 1511 1511 1510 1510 1510 1510 1510
1505 1505 1505 1504 1504 1504 1504 1504 1504 1504 1503 1503 1504 1504 1503 1503 1503 1504 1504 1504 1504 1505 1505 1505 1505 1506 1506 1506 1506 1507 1507 1507 1507 1507 1507 1508 1508 1508 1508 1508 1509 1509 1509 1509 1509 1509 1509 1509 1509 1510 1510 1510 1510 1510 1510 1510 1509 1509 1509 1509 1509 1509 1509 1509 1509 1508 1508 1508 1508
1505 1504 1504 1504 1504 1503 1503 1503 1503 1503 1503 1503 1503 1503 1503 1503 1503 1503 1503 1504 1504 1504 1504 1504 1505 1505 1505 1505 1506 1506 1506 1506 1506 1506 1506 1507 1507 1507 1507 1508 1508 1508 1508 1508 1508 1508 1508 1508 1508 1508 1508 1508 1508 1508 1508 1508 1508 1508 1508 1508 1508 1508 1508 1507 1507 1507 1507 1507 1506
1504 1504 1503 1503 1503 1503 1503 1503 1503 1503 1503 1503 1503 1503 1503 1503 1503 1503 1503 1503 1503 1504 1504 1504 1504 1504 1504 1505 1505 1505 1505 1505 1505 1506 1506 1506 1506 1506 1506 1507 1507 1507 1507 1507 1507 1507 1507 1508 1507 1507 1507 1507 1507 1507 1507 1507 1506 1506 1506 1506 1506 1506 1506 1505 1505 1505 1505 1505 1505
1503 1503 1503 1503 1503 1503 1503 1503 1503 1503 1503 1502 1502 1502 1502 1502 1503 1503 1503 1503 1503 1503 1503 1504 1504 1504 1504 1504 1504 1504 1505 1505 1505 1505 1505 1505 1505 1505 1505 1506 1505 1505 1505 1506 1506 1506 1506 1506 1506 1505 1505 1505 1505 1505 1505 1505 1505 1505 1505 1504 1504 1504 1504 1504 1503 1503 1503 1503 1503
1503 1503 1502 1502 1502 1502 1502 1502 1502 1502 1502 1502 1502 1502 1502 1502 1502 1502 1502 1503 1503 1503 1503 1503 1503 1503 1503 1504 1504 1504 1504 1504 1504 1504 1504 1504 1504 1504 1504 1504 1504 1504 1504 1504 1504 1504 1504 1504 1504 1504 1504 1503 1503 1503 1503 1503 1503 1503 1503 1503 1503 1503 1502 1502 1502 1502 1502 1502 1502
1502 1502 1502 1502 1502 1502 1502 1502 1502 1502 1502 1502 1502 1502 1502 1502 1502 1502 1502 1502 1502 1502 1503 1503 1503 1503 1503 1503 1503 1503 1503 1503 1503 1503 1503 1503 1503 1503 1503 1503 1503 1503 1503 1503 1503 1503 1503 1503 1503 1503 1502 1502 1502 1502 1502 1502 1502 1502 1502 1501 1501 1501 1501 1501 1501 1501 1500 1500 1500
1501 1501 1501 1501 1501 1501 1501 1501 1501 1501 1501 1501 1501 1501 1501 1501 1501 1501 1501 1501 1502 1502 1502 1502 1502 1502 1503 1503 1503 1503 1503 1503 1503 1503 1503 1503 1503 1503 1502 1502 1502 1502 1502 1502 1502 1502 1501 1501 1501 1501 1501 1501 1501 1501 1500 1500 1500 1500 1500 1500 1500 1500 1500 1500 1499 1499 1499 1499 1498
1500 1500 1500 1500 1500 1500 1500 1500 1500 1500 1500 1500 1500 1500 1500 1500 1500 1500 1500 1500 1501 1501 1501 1501 1502 1502 1502 1502 1502 1502 1502 1502 1502 1502 1502 1501 1501 1501 1501 1501 1501 1501 1500 1500 1500 1500 1500 1500 1499 1499 1499 1499 1499 1499 1499 1499 1499 1499 1499 1499 1499 1499 1498 1498 1498 1498 1497 1497 1497
1499 1499 1499 1499 1499 1499 1499 1499 1499 1499 1499 1499 1499 1499 1499 1499 1499 1499 1499 1499 1500 1500 1500 1500 1500 1500 1500 1500 1500 1500 1500 1500 1500 1500 1500 1500 1500 1500 1500 1499 1499 1499 1499 1498 1498 1498 1498 1498 1498 1498 1498 1498 1498 1498 1498 1498 1498 1498 1498 1497 1497 1497 1497 1497 1496 1496 1496 1495 1495
1498 1498 1498 1498 1498 1498 1498 1498 1498 1498 1498 1498 1498 1498 1498 1498 1498 1498 1498 1498 1498 1499 1499 1499 1499 1499 1499 1499 1499 1499 1499 1499 1499 1499 1499 1498 1498 1498 1498 1498 1498 1498 1497 1497 1497 1497 1497 1496 1496 1496 1496 1496 1496 1496 1496 1496 1496 1496 1496 1496 1496 1495 1495 1495 1495 1494 1494 1493 1493
1497 1497 1497 1497 1497 1497 1497 1497 1497 1497 1498 1498 1498 1498 1498 1498 1498 1498 1498 1498 1498 1498 1498 1498 1498 1498 1498 1498 1498 1498 1498 1498 1498 1498 1497 1497 1497 1497 1496 1496 1496 1496 1496 1495 1495 1495 1495 1495 1495 1495 1495 1495 1495 1495 1495 1495 1495 1495 1494 1494 1494 1494 1494 1493 1493 1493 1492 1492 1491
1495 1495 1495 1496 1496 1496 1496 1496 1496 1496 1497 1497 1497 1497 1497 1497 1497 1497 1497 1496 1496 1496 1496 1496 1496 1496 1496 1496 1496 1496 1497 1496 1496 1496 1496 1496 1495 1495 1495 1494 1494 1494 1494 1494 1494 1494 1494 1494 1494 1494 1494 1494 1494 1494 1494 1494 1493 1493 1493 1493 1493 1492 1492 1492 1491 1491 1491 1490 1490
1494 1494 1494 1494 1495 1495 1495 1495 1495 1495 1495 1495 1496 1496 1496 1496 1496 1496 1495 1495 1495 1495 1495 1495 1495 1495 1495 1495 1495 1495 1495 1495 1495 1494 1494 1494 1493 1493 1493 1493 1493 1493 1493 1493 1493 1493 1493 1493 1493 1493 1493 1493 1493 1493 1493 1492 1492 1492 1492 1491 1491 1491 1490 1490 1490 1489 1489 1488 1488
1493 1493 1493 1493 1493 1493 1493 1493 1494 1494 1494 1494 1494 1494 1494 1494 1494 1494 1494 1494 1494 1494 1494 1493 1493 1494 1494 1494 1494 1494 1494 1493 1493 1493 1493 1493 1492 1492 1492 1492 1492 1492 1492 1492 1492 1492 1492 1492 1492 1492 1492 1492 1492 1491 1491 1491 1491 1490 1490 1489 1489 1489 1488 1488 1488 1488 1488 1487 1487
1491 1491 1492 1492 1492 1492 1492 1492 1492 1492 1493 1493 1493 1493 1493 1493 1493 1493 1493 1493 1493 1493 1493 1493 1493 1493 1493 1493 1493 1493 1493 1492 1492 1492 1492 1492 1491 1491 1491 1491 1491 1491 1490 1490 1491 1491 1491 1491 1491 1491 1490 1490 1490 1490 1490 1489 1489 1489 1488 1488 1488 1488 1487 1487 1487 1486 1486 1486 1486
1490 1490 1490 1490 1490 1490 1490 1491 1491 1491 1491 1491 1491 1491 1491 1492 1492 1492 1492 1491 1491 1491 1491 1491 1491 1491 1491 1492 1492 1492 1491 1491 1491 1491 1491 1491 1490 1490 1490 1490 1490 1490 1490 1490 1490 1490 1490 1490 1489 1489 1489 1489 1489 1489 1489 1488 1488 1488 1488 1487 1487 1486 1486 1486 1486 1485 1485 1485 1485
1488 1488 1488 1488 1489 1489 1489 1489 1489 1489 1489 1490 1490 1490 1490 1490 1490 1490 1490 1490 1490 1490 1490 1490 1490 1490 1490 1490 1490 1490 1490 1490 1490 1490 1490 1490 1490 1489 1489 1489 1489 1489 1489 1489 1489 1489 1489 1489 1488 1488 1488 1488 1488 1488 1488 1488 1487 1487 1487 1486 1486 1486 1485 1485 1485 1485 1485 1484 1484
1487 1487 1487 1487 1487 1488 1488 1488 1488 1488 1488 1488 1488 1488 1488 1489 1489 1489 1489 1489 1489 1489 1489 1489 1489 1489 1489 1489 1489 1489 1490 1490 1490 1490 1489 1489 1489 1489 1489 1489 1489 1488 1488 1488 1488 1488 1488 1488 1488 1488 1488 1488 1488 1487 1487 1487 1486 1486 1486 1485 1485 1485 1485 1485 1484 1484 1484 1484 1484
1486 1486 1486 1486 1486 1486 1486 1486 1487 1487 1487 1487 1487 1487 1487 1487 1487 1488 1488 1488 1488 1488 1488 1488 1488 1488 1488 1488 1489 1489 1489 1489 1489 1489 1489 1489 1489 1489 1489 1488 1488 1488 1488 1488 1488 1488 1488 1488 1488 1488 1487 1487 1487 1486 1486 1486 1486 1485 1485 1485 1484 1484 1484 1484 1484 1484 1483 1483 1483
1485 1485 1485 1485 1485 1485 1485 1485 1485 1485 1486 1486 1486 1486 1486 1486 1486 1486 1486 1487 1487 1487 1487 1487 1487 1487 1488 1488 1488 1488 1488 1488 1488 1488 1488 1488 1488 1488 1488 1488 1488 1488 1488 1488 1488 1488 1488 1487 1487 1487 1487 1486 1486 1486 1486 1485 1485 1485 1484 1484 1484 1483 1483 1483 1483 1483 1483 1483 1483
1484 1484 1484 1484 1484 1484 1484 1484 1484 1484 1484 1484 1484 1484 1485 1485 1485 1485 1485 1486 1486 1486 1486 1486 1487 1487 1487 1488 1488 1488 1488 1488 1488 1488 1488 1488 1488 1488 1488 1488 1488 1488 1488 1488 1488 1488 1487 1487 1487 1486 1486 1486 1486 1485 1485 1485 1484 1484 1484 1483 1483 1483 1483 1483 1483 1483 1483 1483 1483
1483 1483 1483 1483 1483 1483 1483 1483 1483 1483 1483 1483 1483 1483 1484 1484 1484 1484 1484 1485 1485 1485 1485 1486 1486 1487 1487 1487 1488 1488 1488 1488 1488 1488 1488 1488 1488 1488 1488 1488 1488 1488 1488 1488 1487 1487 1487 1486 1486 1486 1486 1485 1485 1485 1484 1484 1484 1484 1483 1483 1483 1483 1483 1483 1483 1483 1483 1483 1483
1482 1482 1482 1482 1482 1482 1482 1482 1482 1482 1483 1483 1483 1483 1483 1483 1483 1484 1484 1484 1484 1485 1485 1486 1486 1486 1487 1487 1487 1488 1488 1488 1488 1488 1488 1488 1488 1488 1488 1488 1488 1488 1487 1487 1487 1486 1486 1486 1486 1485 1485 1485 1485 1484 1484 1484 1484 1484 1483 1483 1483 1483 1483 1483 1483 1483 1483 1483 1483
1481 1481 1481 1481 1481 1481 1482 1482 1482 1482 1482 1482 1483 1483 1483 1483 1483 1483 1484 1484 1484 1485 1485 1486 1486 1486 1487 1487 1487 1487 1487 1488 1488 1488 1488 1488 1488 1488 1488 1488 1487 1487 1487 1486 1486 1486 1486 1486 1485 1485 1485 1485 1485 1484 1484 1484 1484 1484 1484 1484 1483 1483 1483 1483 1483 1483 1483 1483 1483
1480 1481 1481 1481 1481 1481 1481 1481 1482 1482 1482 1482 1483 1483 1483 1483 1483 1483 1484 1484 1484 1485 1485 1485 1486 1486 1486 1487 1487 1487 1487 1487 1488 1488 1488 1488 1488 1488 1487 1487 1487 1486 1486 1486 1486 1486 1486 1486 1486 1485 1485 1485 1485 1485 1484 1484 1484 1484 1484 1484 1484 1484 1484 1484 1484 1484 1483 1483 1483
1480 1480 1480 1480 1481 1481 1481 1481 1482 1482 1482 1482 1483 1483 1483 1483 1483 1484 1484 1484 1484 1485 1485 1485 1486 1486 1486 1486 1486 1487 1487 1487 1488 1488 1488 1488 1487 1487 1487 1487 1487 1486 1486 1486 1486 1486 1486 1486 1486 1486 1485 1485 1485 1485 1485 1484 1484 1484 1484 1484 1484 1484 1484 1484 1484 1484 1483 1483 1483
1480 1480 1480 1480 1481 1481 1481 1481 1481 1482 1482 1483 1483 1483 1483 1483 1483 1484 1484 1484 1484 1485 1485 1485 1485 1486 1486 1486 1487 1487 1487 1487 1488 1488 1488 1487 1487 1487 1487 1487 1487 1487 1487 1487 1487 1487 1487 1486 1486 1486 1486 1486 1485 1485 1485 1485 1485 1484 1484 1484 1484 1484 1484 1484 1484 1483 1483 1483 1483
1480 1480 1480 1480 1481 1481 1481 1481 1482 1482 1482 1483 1483 1483 1483 1483 1484 1484 1484 1484 1485 1485 1485 1485 1486 1486 1486 1486 1487 1487 1487 1488 1488 1488 1487 1487 1487 1487 1487 1487 1487 1487 1487 1487 1487 1487 1487 1487 1487 1486 1486 1486 1486 1485 1485 1485 1485 1485 1484 1484 1484 1484 1484 1484 1484 1483 1483 1483 1483
1480 1480 1480 1480 1481 1481 1481 1481 1482 1482 1483 1483 1483 1483 1483 1483 1484 1484 1484 1484 1485 1485 1485 1485 1486 1486 1486 1487 1487 1487 1488 1488 1487 1487 1487 1488 1488 1488 1488 1488 1488 1488 1488 1488 1488 1488 1487 1487 1487 1487 1486 1486 1486 1486 1485 1485 1485 1485 1484 1484 1484 1484 1484 1484 1483 1483 1483 1483 1482
1479 1480 1480 1480 1481 1481 1481 1481 1482 1482 1482 1483 1483 1483 1483 1484 1484 1484 1484 1485 1485 1485 1486 1486 1486 1487 1487 1487 1487 1487 1488 1488 1488 1488 1488 1488 1488 1488 1488 1488 1488 1488 1488 1488 1488 1488 1488 1487 1487 1487 1487 1486 1486 1486 1485 1485 1485 1485 1484 1484 1484 1484 1483 1483 1483 1483 1483 1482 1482
1479 1479 1480 1480 1480 1481 1481 1481 1482 1482 1482 1483 1483 1483 1483 1484 1484 1484 1485 1485 1485 1486 1486 1486 1487 1487 1487 1487 1488 1488 1488 1488 1488 1488 1488 1488 1488 1489 1489 1489 1489 1488 1488 1488 1488 1488 1488 1487 1487 1487 1486 1486 1486 1485 1485 1485 1485 1484 1484 1484 1484 1483 1483 1483 1483 1482 1482 1482 1481
1479 1479 1480 1480 1480 1481 1481 1481 1482 1482 1482 1483 1483 1483 1483 1484 1484 1485 1485 1485 1486 1486 1487 1487 1487 1487 1488 1488 1488 1488 1488 1488 1488 1488 1489 1489 1489 1489 1489 1489 1489 1489 1488 1488 1488 1488 1487 1487 1487 1487 1486 1486 1485 1485 1485 1485 1484 1484 1484 1484 1483 1483 1483 1483 1483 1482 1482 1481 1481
1479 1479 1480 1480 1480 1481 1481 1482 1482 1482 1483 1483 1483 1483 1484 1484 1485 1485 1485 1486 1486 1487 1487 1487 1488 1488 1488 1488 1488 1488 1488 1489 1489 1489 1489 1489 1489 1489 1489 1489 1489 1488 1488 1488 1488 1488 1487 1487 1487 1486 1486 1486 1485 1485 1485 1484 1484 1484 1484 1484 1483 1483 1483 1483 1482 1482 1481 1481 1481
1479 1479 1480 1480 1481 1481 1481 1482 1482 1482 1483 1483 1483 1484 1484 1485 1485 1485 1486 1486 1487 1487 1488 1488 1488 1488 1488 1488 1489 1489 1489 1489 1489 1490 1490 1490 1490 1489 1489 1489 1489 1488 1488 1488 1488 1487 1487 1487 1486 1486 1486 1485 1485 1485 1484 1484 1484 1484 1484 1483 1483 1483 1483 1482 1482 1481 1481 1481 1480
1479 1480 1480 1480 1481 1481 1482 1482 1482 1483 1483 1483 1484 1484 1485 1485 1485 1486 1486 1487 1487 1488 1488 1488 1488 1488 1489 1489 1489 1489 1490 1490 1490 1490 1490 1490 1490 1489 1489 1489 1489 1488 1488 1488 1488 1487 1487 1487 1486 1486 1486 1485 1485 1485 1484 1484 1484 1484 1484 1483 1483 1483 1483 1482 1482 1481 1481 1480 1480
1479 1480 1480 1480 1481 1481 1482 1482 1483 1483 1483 1484 1484 1485 1485 1485 1486 1486 1487 1487 1488 1488 1488 1488 1489 1489 1489 1489 1490 1490 1490 1490 1490 1490 1490 1490 1490 1489 1489 1489 1489 1488 1488 1488 1488 1487 1487 1487 1486 1486 1486 1485 1485 1485 1484 1484 1484 1484 1483 1483 1483 1483 1482 1482 1481 1481 1480 1480 1479
1480 1480 1480 1481 1481 1482 1482 1483 1483 1483 1484 1484 1485 1485 1486 1486 1486 1487 1487 1488 1488 1488 1489 1489 1489 1490 1490 1490 1490 1490 1490 1490 1490 1490 1490 1490 1490 1489 1489 1489 1489 1488 1488 1488 1488 1487 1487 1487 1486 1486 1486 1485 1485 1485 1484 1484 1483 1483 1483 1483 1482 1482 1481 1481 1481 1480 1480 1479 1479